User: anonymous   Login
Location: Unspecified
(0.0000°N, 0.0000°E)
Time: 15:28:36
(UTC+00:00)
Language:

XW-2D - Orbit

View from above orbital plane
View from above orbital plane
View from above satellite
View from above satellite

Ground track
Ground track

The orbit data is extracted from the following two-line orbital elements,

1 40907U 15049J   18111.21634093  .00000993  00000-0  56237-4 0  9997
2 40907  97.4580 115.4584 0013260 220.2657 139.7594 15.15261780142875
Epoch (UTC): 21 April 2018 05:11:31
Eccentricity: 0.0013260
inclination: 97.4580°
perigee height: 511 km
apogee height: 529 km
right ascension of ascending node: 115.4584°
argument of perigee: 220.2657°
revolutions per day: 15.15261780
mean anomaly at epoch: 139.7594°
orbit number at epoch: 14287

The dashed part of the orbit path shows where the satellite is in the earth's shadow,  

DLR